When you browse on this site, cookies collect data to enhance your experience and personalize the content and advertising you see.
Visit our Privacy Policy to learn more. By continuing to use the site, you agree to this use of cookies and data.
  • In Österreich
  • Länderverzeichnis
  • Für 7 Tage
  • Wassertemperatur
  • Satellitenkarten
  • Wetterkarte
  • News
  • Widgets
  • user-avatar
    Anmelden

    Stündliche Wetter Seneckoe

    Heute, 19 November, Montag

    Zeit Temperatur Niederschläge Wind Luftdruck Luftfeuchtigkeit
    00:00 0°C° 0 mm 3 m/S 762 mmHg 93%
    01:00 0°C° 0 mm 3 m/S 763 mmHg 94%
    02:00 0°C° 0 mm 3 m/S 763 mmHg 94%
    03:00 0°C° 0 mm 3 m/S 763 mmHg 94%
    04:00 0°C° 0 mm 3 m/S 764 mmHg 94%
    05:00 0°C° 0 mm 3 m/S 764 mmHg 94%
    06:00 +1°C° 0 mm 2 m/S 764 mmHg 94%
    07:00 +1°C° 0 mm 2 m/S 765 mmHg 93%
    08:00 +1°C° 0 mm 2 m/S 765 mmHg 93%
    09:00 +1°C° 0 mm 2 m/S 765 mmHg 92%
    10:00 +1°C° 0 mm 2 m/S 766 mmHg 91%
    11:00 +1°C° 0 mm 2 m/S 766 mmHg 90%
    12:00 +1°C° 0 mm 2 m/S 766 mmHg 89%
    13:00 +1°C° 0 mm 2 m/S 766 mmHg 89%
    14:00 +1°C° 0 mm 2 m/S 767 mmHg 88%
    15:00 +1°C° 0 mm 2 m/S 767 mmHg 88%
    16:00 -1°C° 0 mm 2 m/S 766 mmHg 88%
    17:00 -1°C° 0 mm 2 m/S 766 mmHg 88%
    18:00 -1°C° 0 mm 2 m/S 767 mmHg 87%
    19:00 -2°C° 0 mm 2 m/S 767 mmHg 87%
    20:00 -2°C° 0 mm 2 m/S 767 mmHg 86%
    21:00 -2°C° 0 mm 2 m/S 767 mmHg 87%
    22:00 0°C° 0 mm 1 m/S 767 mmHg 87%
    23:00 0°C° 0 mm 1 m/S 767 mmHg 87%

    Morgen, 20 November, Dienstag

    Zeit Temperatur Niederschläge Wind Luftdruck Luftfeuchtigkeit
    00:00 0°C° 0 mm 1 m/S 767 mmHg 88%
    01:00 -1°C° 0 mm 1 m/S 767 mmHg 89%
    02:00 -1°C° 0 mm 1 m/S 767 mmHg 89%
    03:00 -1°C° 0 mm 1 m/S 766 mmHg 91%
    04:00 -2°C° 0 mm 1 m/S 766 mmHg 92%
    05:00 -2°C° 0 mm 1 m/S 765 mmHg 94%
    06:00 -3°C° 0 mm 1 m/S 765 mmHg 94%
    07:00 -3°C° 0 mm 1 m/S 765 mmHg 94%
    08:00 -4°C° 0 mm 0 m/S 765 mmHg 95%
    09:00 -3°C° 0 mm 0 m/S 765 mmHg 91%
    10:00 -2°C° 0 mm 0 m/S 765 mmHg 87%
    11:00 -2°C° 0 mm 0 m/S 764 mmHg 83%
    12:00 -1°C° 0 mm 0 m/S 764 mmHg 83%
    13:00 0°C° 0 mm 1 m/S 764 mmHg 83%
    14:00 0°C° 0 mm 1 m/S 764 mmHg 83%
    15:00 -1°C° 0 mm 1 m/S 763 mmHg 86%
    16:00 -2°C° 0 mm 1 m/S 763 mmHg 89%
    17:00 -2°C° 0 mm 1 m/S 763 mmHg 93%
    18:00 -2°C° 0 mm 1 m/S 763 mmHg 93%
    19:00 -2°C° 0 mm 1 m/S 763 mmHg 93%
    20:00 -3°C° 0 mm 1 m/S 762 mmHg 93%
    21:00 -3°C° 0 mm 1 m/S 762 mmHg 93%
    22:00 -3°C° 0 mm 1 m/S 762 mmHg 92%
    23:00 -3°C° 0 mm 1 m/S 762 mmHg 91%

    übermorgen, 21 November, Mittwoch

    Zeit Temperatur Niederschläge Wind Luftdruck Luftfeuchtigkeit
    00:00 -2°C° 0 mm 1 m/S 762 mmHg 91%
    01:00 -2°C° 0 mm 1 m/S 762 mmHg 90%
    02:00 -3°C° 0 mm 2 m/S 762 mmHg 89%
    03:00 -3°C° 0 mm 2 m/S 762 mmHg 90%
    04:00 -3°C° 0 mm 2 m/S 762 mmHg 90%
    05:00 -2°C° 0 mm 2 m/S 762 mmHg 91%
    06:00 -2°C° 0 mm 2 m/S 762 mmHg 92%
    07:00 -2°C° 0 mm 2 m/S 762 mmHg 92%
    08:00 -2°C° 0 mm 2 m/S 762 mmHg 93%
    09:00 -1°C° 0 mm 2 m/S 763 mmHg 90%
    10:00 -1°C° 0 mm 2 m/S 763 mmHg 87%
    11:00 -1°C° 0 mm 2 m/S 763 mmHg 85%
    12:00 -1°C° 0 mm 2 m/S 763 mmHg 84%
    13:00 -1°C° 0 mm 2 m/S 763 mmHg 83%
    14:00 -1°C° 0 mm 2 m/S 763 mmHg 82%
    15:00 -1°C° 0 mm 2 m/S 763 mmHg 84%
    16:00 -2°C° 0 mm 2 m/S 763 mmHg 87%
    17:00 -2°C° 0 mm 2 m/S 763 mmHg 89%
    18:00 -1°C° 0 mm 1 m/S 763 mmHg 90%
    19:00 -1°C° 0 mm 1 m/S 763 mmHg 92%
    20:00 -1°C° 0 mm 1 m/S 763 mmHg 93%
    21:00 -1°C° 0 mm 1 m/S 763 mmHg 94%
    22:00 -4°C° 0 mm 2 m/S 763 mmHg 94%
    23:00 -4°C° 0 mm 2 m/S 763 mmHg 95%

    22 November, Donnerstag

    Zeit Temperatur Niederschläge Wind Luftdruck Luftfeuchtigkeit
    00:00 -4°C° 0 mm 2 m/S 763 mmHg 94%
    01:00 -4°C° 0 mm 2 m/S 762 mmHg 94%
    02:00 -4°C° 0 mm 2 m/S 762 mmHg 93%
    03:00 -4°C° 0 mm 2 m/S 762 mmHg 93%
    04:00 -4°C° 0 mm 2 m/S 762 mmHg 93%
    05:00 -4°C° 0 mm 2 m/S 761 mmHg 92%
    06:00 -5°C° 0 mm 3 m/S 761 mmHg 93%
    07:00 -5°C° 0 mm 3 m/S 761 mmHg 93%
    08:00 -5°C° 0 mm 3 m/S 761 mmHg 94%
    09:00 -4°C° 0 mm 3 m/S 760 mmHg 90%
    10:00 -3°C° 0 mm 4 m/S 760 mmHg 87%
    11:00 -3°C° 0 mm 4 m/S 760 mmHg 84%
    12:00 -2°C° 0 mm 4 m/S 760 mmHg 83%
    13:00 -2°C° 0 mm 4 m/S 760 mmHg 82%
    14:00 -2°C° 0 mm 4 m/S 759 mmHg 81%
    15:00 -1°C° 0 mm 3 m/S 760 mmHg 83%
    16:00 -2°C° 0 mm 3 m/S 760 mmHg 85%
    17:00 -2°C° 0 mm 3 m/S 760 mmHg 87%
    18:00 -2°C° 0 mm 3 m/S 760 mmHg 89%
    19:00 -2°C° 0 mm 3 m/S 760 mmHg 90%
    20:00 -1°C° 0 mm 3 m/S 761 mmHg 92%
    21:00 -1°C° 0 mm 2 m/S 761 mmHg 93%
    22:00 -1°C° 0 mm 2 m/S 761 mmHg 94%
    23:00 -1°C° 0 mm 2 m/S 761 mmHg 95%

    23 November, Freitag

    Zeit Temperatur Niederschläge Wind Luftdruck Luftfeuchtigkeit
    00:00 -1°C° 0 mm 2 m/S 762 mmHg 95%
    01:00 +1°C° 0 mm 1 m/S 762 mmHg 95%
    02:00 +1°C° 0 mm 1 m/S 762 mmHg 96%
    03:00 +1°C° 0 mm 1 m/S 762 mmHg 96%
    04:00 +1°C° 0 mm 1 m/S 762 mmHg 96%
    05:00 +1°C° 0 mm 1 m/S 763 mmHg 96%
    06:00 +1°C° 0 mm 1 m/S 763 mmHg 96%
    07:00 -1°C° 0 mm 2 m/S 763 mmHg 96%
    08:00 -1°C° 0 mm 2 m/S 763 mmHg 95%
    09:00 -1°C° 0 mm 2 m/S 763 mmHg 94%
    10:00 -1°C° 0 mm 2 m/S 763 mmHg 92%
    11:00 +1°C° 0 mm 2 m/S 762 mmHg 91%
    12:00 0°C° 0 mm 3 m/S 762 mmHg 90%
    13:00 0°C° 0 mm 3 m/S 762 mmHg 90%
    14:00 0°C° 0 mm 3 m/S 761 mmHg 89%
    15:00 -2°C° 0 mm 4 m/S 761 mmHg 89%
    16:00 -2°C° 0 mm 4 m/S 761 mmHg 90%
    17:00 -2°C° 0 mm 4 m/S 760 mmHg 90%
    18:00 -2°C° 0 mm 4 m/S 760 mmHg 89%
    19:00 -2°C° 0 mm 4 m/S 760 mmHg 88%
    20:00 -2°C° 0 mm 4 m/S 759 mmHg 87%
    21:00 -2°C° 0 mm 4 m/S 759 mmHg 86%
    22:00 -2°C° 0 mm 4 m/S 759 mmHg 86%
    23:00 -2°C° 0 mm 4 m/S 758 mmHg 86%

    24 November, Samstag

    Zeit Temperatur Niederschläge Wind Luftdruck Luftfeuchtigkeit
    00:00 -3°C° 0 mm 4 m/S 758 mmHg 86%
    01:00 -3°C° 0 mm 4 m/S 758 mmHg 86%
    02:00 -3°C° 0 mm 4 m/S 757 mmHg 87%
    03:00 -3°C° 0 mm 4 m/S 757 mmHg 87%
    04:00 -2°C° 0 mm 3 m/S 757 mmHg 86%
    05:00 -2°C° 0 mm 3 m/S 757 mmHg 86%
    06:00 -2°C° 0 mm 3 m/S 757 mmHg 87%
    07:00 -2°C° 0 mm 3 m/S 756 mmHg 87%
    08:00 -2°C° 0 mm 3 m/S 756 mmHg 87%
    09:00 -2°C° 0 mm 3 m/S 756 mmHg 87%
    10:00 -2°C° 0 mm 3 m/S 756 mmHg 86%
    11:00 -2°C° 0 mm 3 m/S 756 mmHg 86%
    12:00 -1°C° 0 mm 3 m/S 756 mmHg 86%
    13:00 -1°C° 0 mm 3 m/S 756 mmHg 87%
    14:00 -1°C° 0 mm 3 m/S 756 mmHg 87%
    15:00 -1°C° 0 mm 3 m/S 756 mmHg 88%
    16:00 -1°C° 0 mm 2 m/S 756 mmHg 89%
    17:00 -2°C° 0 mm 2 m/S 756 mmHg 91%
    18:00 -2°C° 0 mm 2 m/S 756 mmHg 91%
    19:00 -2°C° 0 mm 2 m/S 756 mmHg 92%
    20:00 -2°C° 0 mm 2 m/S 756 mmHg 93%
    21:00 -2°C° 0 mm 2 m/S 756 mmHg 93%
    22:00 0°C° 0 mm 1 m/S 756 mmHg 94%
    23:00 0°C° 0 mm 1 m/S 757 mmHg 94%
    Mehr zeigen